Location: Chomutov
(50.4500°N, 13.4333°E)
Time: 13:03:20
(UTC+02:00)

X-37B - Visible Passes

Search period start: 25 June 2021 00:00
Search period end: 05 July 2021 00:00
Orbit: 386 x 389 km, 45.0° (Epoch: 23 June)

Date Brightness Start Highest point End Pass type
(mag) Time Alt. Az. Time Alt. Az. Time Alt. Az.
25 Jun 3.2 00:47:19 10° WSW 00:47:26 11° WSW 00:47:26 11° WSW visible
25 Jun 2.0 22:13:16 10° SW 22:15:45 21° SSE 22:18:13 10° ESE visible
25 Jun 1.4 23:49:03 10° WSW 23:51:49 30° S 23:51:49 30° S visible
26 Jun 1.5 22:50:50 10° WSW 22:53:40 29° S 22:55:57 13° ESE visible
27 Jun 2.6 00:27:11 10° WSW 00:28:13 17° SW 00:28:13 17° SW visible
27 Jun 1.5 23:28:50 10° WSW 23:31:38 28° S 23:32:13 26° SSE visible
28 Jun 1.5 22:30:34 10° WSW 22:33:24 30° S 22:36:09 11° ESE visible
29 Jun 2.6 00:07:09 10° WSW 00:08:24 16° SW 00:08:24 16° SW visible
29 Jun 1.8 23:08:42 10° WSW 23:11:22 24° SSW 23:12:19 21° SSE visible
30 Jun 1.7 22:10:21 10° WSW 22:13:09 28° S 22:15:57 10° SE visible
30 Jun 2.8 23:47:22 10° WSW 23:48:28 14° SW 23:48:28 14° SW visible
01 Jul 2.3 22:48:40 10° WSW 22:51:04 19° SSW 22:52:22 15° SSE visible
03 Jul 2.8 22:28:53 10° WSW 22:30:43 14° SSW 22:32:28 10° S visible
